Location: Buckeye Ditch
(40.9104°N, 122.9517°W)
Time: 19:33:19
(UTC+00:00)

BlueWalker 3 - Pass Details

Date: 28 June 2024
Orbit: 480 x 491 km, 53.2° (Epoch: 24 July)

Event Time Altitude Azimuth Distance (km) Brightness Sun altitude
Rises 05:02:38 0° 301° (WNW) 2,543 7.2 -11.8°
Reaches altitude 10° 05:05:57 10° 332° (NNW) 1,661 5.9 -12.3°
Maximum altitude 05:07:35 12° 358° (N) 1,514 5.1 -12.5°
Drops below altitude 10° 05:09:14 10° 24° (NNE) 1,659 4.9 -12.7°
Sets 05:12:32 0° 56° (NE) 2,538 5.4 -13.1°
